Location: Moscow
(55.7500°N, 37.5830°E)
Time: 11:00:35
(UTC+03:00)

Explorer 7 - Pass Details

Date: 30 November 2021
Orbit: 483 x 674 km, 50.3° (Epoch: 19 January)

Event Time Altitude Azimuth Distance (km) Brightness Sun altitude
Rises 08:01:48 0° 215° (SW) 2,738 10.4 -4.4°
Reaches altitude 10° 08:04:35 10° 197° (SSW) 1,805 9.7 -4.1°
Maximum altitude 08:07:28 19° 152° (SSE) 1,308 9.8 -3.8°
Drops below altitude 10° 08:10:15 10° 107° (ESE) 1,739 10.9 -3.4°
Sets 08:12:53 0° 89° (E) 2,599 11.2 -3.1°
